This demonstration page uses our WeatherBlox Daily Observations layout. Learn more.

41.55636, -103.73856

Hourly Observations for May 15, 2017

Temp ( °F °C ) Dew Point ( °F °C ) Humidity (%) Winds ( mph kmh ) Pressure ( in mb ) Visibility ( mi km ) Precip ( " mm )
12:53 am 00:53 Clear 57 13.9 48 8.9 72 72 ENE 14 22 29.72 1007 10 16.0934 0 0
1:53 am 01:53 Clear 56 13.3 47 8.3 72 72 ENE 13 20 29.72 1006 10 16.0934 0 0
2:53 am 02:53 Clear 55 12.8 47 8.3 74 74 E 12 19 29.72 1006 10 16.0934 0 0
3:53 am 03:53 Clear 55 12.8 47 8.3 74 74 ENE 13 20 29.72 1006 10 16.0934 0 0
4:53 am 04:53 Cloudy 59 15 43 6.1 56 56 ENE 13 20 29.7 1006 10 16.0934 0 0
5:53 am 05:53 Sunny 54 12.2 43 6.1 67 67 NE 14 22 29.73 1007 10 16.0934 0 0
6:53 am 06:53 Sunny 53 11.7 44 6.7 72 72 E 9 15 29.76 1008 10 16.0934 0 0
7:53 am 07:53 Sunny 55 12.8 44 6.7 67 67 E 9 15 29.77 1008 10 16.0934 0 0
8:53 am 08:53 Sunny 59 15 46 7.8 62 62 E 13 20 29.76 1008 10 16.0934 0 0
9:53 am 09:53 Sunny 64 17.8 47 8.3 54 54 SE 8 13 29.74 1007 10 16.0934 0 0
10:53 am 10:53 Sunny 66 18.9 48 8.9 52 52 SE 6 9 29.72 1007 10 16.0934 0 0
11:53 am 11:53 Sunny 70 21.1 50 10 49 49 SSE 10 17 29.7 1006 10 16.0934 0 0
12:53 pm 12:53 Sunny 74 23.3 50 10 43 43 SE 12 19 29.67 1005 10 16.0934 0 0
1:53 pm 13:53 Sunny 76 24.4 49 9.4 39 39 ESE 14 22 29.65 1004 10 16.0934 0 0
2:53 pm 14:53 Sunny 77 25 49 9.4 37 37 SE 14 22 29.62 1003 10 16.0934 0 0
3:53 pm 15:53 Sunny 78 25.6 49 9.4 36 36 SE 15 24 29.58 1002 10 16.0934 0 0
4:53 pm 16:53 Sunny 79 26.1 47 8.3 32 32 SE 16 26 29.54 1000 10 16.0934 0 0
5:53 pm 17:53 Sunny 75 23.9 45 7.2 34 34 SE 20 31 29.52 1000 10 16.0934 0 0
6:22 pm 18:22 Sunny with Nearby Thunderstorms 73 23 46 8 38 38 SE 15 24 29.44 997 10 16.0934 0 0
6:53 pm 18:53 Sunny with Nearby Thunderstorms 73 22.8 47 8.3 40 40 SE 7 11 29.54 1000 10 16.0934 0 0
7:18 pm 19:18 Sunny 72 22 48 9 44 44 NE 8 13 29.44 997 10 16.0934 0 0
7:53 pm 19:53 Sunny 70 21.1 49 9.4 47 47 ENE 12 19 29.51 999 10 16.0934 0 0
8:53 pm 20:53 Clear with Thunderstorms 68 20 49 9.4 51 51 ENE 8 13 29.5 999 10 16.0934 0 0
9:27 pm 21:27 Windy with Storms Likely 58 14.4 49 9.4 72 72 W 23 37 29.59 1002 10 16.0934 0 0.0254
9:36 pm 21:36 Cloudy with Heavy Thunderstorms 55 13 50 10 82 82 SSW 10 17 29.59 1002 2.5 4.02335 0 0
9:44 pm 21:44 Cloudy with Heavy Thunderstorms 54 12 48 9 82 82 Calm 29.59 1002 1.5 2.41401 0 0
9:48 pm 21:48 Cloudy with Light Thunderstorms 54 12 48 9 82 82 SW 3 6 29.62 1003 3 4.82802 0 0
9:53 pm 21:53 Cloudy with Light Thunderstorms 53 11.7 48 8.9 83 83 undefined N/A 29.53 1000 5 8.0467 0.33 8.382
10:02 pm 22:02 Mostly Cloudy with Light Thunderstorms 54 12 48 9 82 82 NNE 6 9 29.59 1002 6 9.65604 0 0
10:08 pm 22:08 Mostly Cloudy with Nearby Thunderstorms 54 12.2 47 8.3 77 77 VRB 5 7 29.59 1002 10 16.0934 0.12 3.048
10:23 pm 22:23 Mostly Clear 55 12.8 47 8.3 74 74 VRB 3 6 29.53 1000 10 16.0934 0.12 3.048
10:53 pm 22:53 Clear 56 13.3 48 8.9 75 75 NE 8 13 29.52 1000 10 16.0934 0.12 3.048
11:53 pm 23:53 Cloudy 59 15 47 8.3 64 64 NNW 20 31 29.54 1000 10 16.0934 0 0

Powered by AerisWeather